Location: *
(43.4667°N, 11.6833°E)
Time: 01:43:19
(UTC+00:00)

Nimbus 7 Rocket - Pass Details

Date: 19 July 2019
Orbit: 923 x 964 km, 99.4° (Epoch: 23 August)

Event Time Altitude Azimuth Distance (km) Brightness Sun altitude
Rises 22:11:14 0° 13° (NNE) 3,600 8.4 -23.9°
Reaches altitude 10° 22:13:40 10° 13° (NNE) 2,657 7.6 -24.0°
Maximum altitude 22:19:37 81° 287° (WNW) 960 4.4 -24.3°
Enters shadow 22:21:29 47° 207° (SSW) 1,238 4.7 -24.4°
